Location: Edinburgh
(55.9500°N, 3.1600°W)
Time: 03:08:24
(UTC+01:00)

Envisat - Pass Details

Date: 24 February 2019
Orbit: 764 x 766 km, 98.1° (Epoch: 20 October)

Event Time Altitude Azimuth Distance (km) Brightness Sun altitude
Rises 18:04:46 0° 150° (SSE) 3,224 6.0 -4.8°
Reaches altitude 10° 18:07:05 10° 147° (SSE) 2,301 5.2 -5.1°
Maximum altitude 18:12:04 61° 68° (ENE) 874 3.1 -5.8°
Drops below altitude 10° 18:17:05 10° 349° (N) 2,316 5.6 -6.5°
Sets 18:19:26 0° 346° (NNW) 3,247 6.3 -6.9°
